Insat 1B

operational
NORAD ID: 14318 Int'l Des: 1983-089 Owner: ISRO Country: IN
HEOCIRCULAR

Insat 1Bについて

説明を読み込み中...

リアルタイム位置

3D地球を読み込み中...

次回通過

高度履歴

Altitude vs Time

uPlot chart will show altitude changes over time

軌道要素

1 14318U 83089B 26062.54052750 -.00000324 00000-0 00000-0 0 9999
2 14318 11.3112 327.7132 0010192 261.8327 228.0391 1.00181183124156
Epoch: Mar 3, 2026 • Age: 45 hours

現在のステータス

高度 35771.6 km
速度 3.08 km/s
衛星直下点 -10.75°S, 100.94°E
打ち上げ日 Aug 30, 1983
運用期間 42.5 years
タイプ other

技術仕様

分類 Payload
質量 1194.00 kg
乾燥質量 550.00 kg
総質量 1194.00 kg
長さ 2.20 m
直径 1.60 m
スパン 19.40 m
形状 Box + Pan + Ant
製造者 FORDA
バスタイプ Insat
フェーズステータス In Orbit
所有者/国 ISRO/IN

大規模コンステレーション

Loading constellations...